Location: Lugrin
(46.4033°N, 6.6674°E)
Time: 08:13:29
(UTC+00:00)

Tsikada Rocket - Pass Details

Date: 19 January 2021
Orbit: 957 x 1009 km, 82.9° (Epoch: 04 March)

Event Time Altitude Azimuth Distance (km) Brightness Sun altitude
Exits shadow 04:51:07 14° 209° (SSW) 2,377 5.8 -23.5°
Drops below altitude 10° 04:52:01 10° 205° (SSW) 2,683 6.1 -23.4°
Sets 04:54:39 0° 198° (SSW) 3,626 6.9 -22.9°
